Reflectivity
-20 -20 -20 -20 -20 -20 -20 -20 -20 -20 -20 -20 -20 -20 -20 -20 -20 -20 -20 -20 -20 -20
-20 -20 -20 -20 -20 -20 -20 -20 -20 -20 -20 -20 -20 -20 -20 -20 -20 -20 -20 -20 -20 -20
-20 -20 -20 -20 -20 -20 -20 -20 -20 -20 -20 -20 -20 -20 -20 -20 -20 -20 -20 -20 -20 -20
-20 -20 -20 -20 -20 -20 -20 -20 -20 -20 -20 -20 -20 -20 -20 -20 -20 -20 -20 -20 -20 -20
-20 -20 -20 -20 -20 -20 -20 -20 -20 -20 -20 -20 -20 -20 -20 -20 -20 -20 -20 -20 -20 -20
-20 -20 -20 -20 -20 -20 -20 -20 -20 -20 -20 -20 -20 -20 -20 -20 -20 -20 -20 -20 -20 -20
-20 -20 -20 -20 -20 -20 -20 -20 -20 -20 -20 -20 -20 -20 -20 -20 -20 -20 -20 -20 -20 -20
-20 -20 -20 -20 -20 -20 -20 -20 -20 -20 -20 -20 -20 -20 -20 -20 -20 -20 -20 -20 -20 -20
-20 -20 -20 -20 -20 -20 -20 -20 -20 -20 -20 -20 -20 -20 -20 -20 -20 -20 -20 -20 -20 -20
-20 -20 -20 -20 -20 -20 -20 -20 -20 -20 -20 -20 -20 -20 -20 -20 -20 -20 -20 -20 -20 -20
-20 -20 -20 -20 -20 -20 -20 -20 -20 -20 -20 -20 -20 -20 -20 -20 -20 -20 -20 -20 -20 -20
-20 -20 -20 -20 -20 -20 -20 -20 -20 -20 -20 -20 -20 -20 -20 -20 -20 -20 -20 -20 -20 -20
-20 -20 -20 -20 -20 -20 -20 -20 -20 -20 -20 -20 -20 -20 -20 -20 -20 -20 -20 -20 -20 -20
-20 -20 -20 -20 -20 -20 -20 -20 -20 -20 -20 -20 -20 -20 -20 -20 -20 -20 -20 -20 -20 -20
Wind_Speed
6 4 3 4 3 3 2 2 1 1 2 2 3 2 2 2 3 4 5 6 5 4
5 6 5 5 4 3 3 2 1 1 2 2 2 2 2 2 3 3 4 5 6 5
6 6 5 5 5 4 2 1 1 0 1 2 1 1 1 2 2 3 3 4 5 5
6 6 5 4 3 3 4 3 3 2 1 2 2 1 2 3 3 4 4 4 4 6
6 6 5 5 5 4 3 2 2 1 2 3 3 3 3 4 3 4 4 4 5 6
7 6 5 3 3 3 3 3 2 1 3 3 3 3 3 3 3 4 4 4 5 6
5 4 4 3 3 3 2 2 2 3 3 3 3 3 4 4 4 4 5 5 5 6
4 4 4 3 2 2 3 3 4 4 3 3 3 3 4 4 4 5 6 5 6 6
4 3 3 3 3 4 5 5 4 3 3 3 3 5 7 6 4 5 5 7 6 6
4 5 5 5 5 6 5 3 3 3 4 4 4 7 7 6 4 4 5 6 7 7
4 4 5 6 6 5 3 4 3 3 3 4 4 7 7 8 5 5 7 7 8 8
6 6 6 6 6 3 3 2 3 2 3 4 6 7 9 8 5 6 8 7 7 7
6 6 5 4 3 2 2 2 2 4 3 5 7 10 11 9 4 7 6 6 7 11
3 3 2 2 1 1 2 3 3 4 5 6 7 8 12 12 5 5 6 6 6 6
Wind_Direction
182 189 161 177 171 175 176 170 193 249 280 297 292 286 262 258 255 236 237 242 236 247
172 168 167 172 166 154 170 173 175 293 322 323 310 303 287 268 267 244 248 249 248 241
177 167 168 158 173 155 129 106 162 238 273 292 303 323 300 275 260 245 247 250 249 248
172 157 147 168 133 138 150 188 199 207 248 278 294 308 283 277 279 275 287 274 269 270
146 138 163 169 162 170 170 176 213 220 265 281 301 318 311 311 314 307 304 304 293 287
160 167 173 156 147 148 164 200 217 260 261 275 298 310 303 293 297 293 288 286 280 281
160 154 152 157 163 158 175 234 268 257 268 287 292 287 291 291 294 289 285 287 282 278
140 136 147 156 137 173 204 218 224 236 241 250 259 267 280 278 282 284 291 289 284 280
139 143 151 167 193 204 217 223 227 235 254 274 273 281 287 288 276 281 284 293 294 281
163 180 190 192 199 212 220 219 241 248 246 256 267 283 292 293 278 280 281 278 284 288
171 189 189 195 207 212 217 227 236 249 265 285 287 287 290 292 286 276 275 270 270 274
188 193 193 205 211 217 220 229 237 236 252 262 279 285 295 295 278 273 274 281 281 276
192 194 198 203 211 223 223 244 263 275 265 271 280 293 291 290 267 276 278 273 266 274
187 189 193 185 187 219 269 291 290 286 282 272 264 271 281 286 277 274 287 282 284 267